Location: Luz Observatory
(34.5000°N, 117.2833°W)
Time: 03:35:17
(UTC-07:00)

Daily predictions for brighter satellites

Satellite Brightness Start Highest point End
(mag) Time Altitude Azimuth Time Altitude Azimuth Time Altitude Azimuth
CZ-4C R/B 3.1 00:08:02 40° NE 00:08:02 40° NE 00:11:45 10° NE
Cosmos 1891 Rocket 4.5 00:04:32 10° N 00:10:01 73° NNW 00:10:01 73° NNW
Cosmos 1844 Rocket 3.2 00:39:30 55° N 00:39:30 55° N 00:43:49 10° NNE
Cosmos 1634 Rocket 4.4 00:35:16 10° N 00:40:47 54° ENE 00:40:47 54° ENE
CZ-2C R/B 4.1 00:50:10 43° WNW 00:50:10 43° WNW 00:54:34 10° NNW
CZ-2C R/B 4.5 01:15:05 10° NNW 01:18:50 20° WNW 01:18:51 20° WNW
H-2A R/B 4.2 01:17:47 10° NNE 01:20:19 32° NNE 01:20:19 32° NNE
Cosmos 2278 Rocket 2.6 01:27:04 61° N 01:27:04 61° N 01:31:43 10° NNE
Nadezhda 4 Rocket 4.3 01:35:13 55° E 01:35:13 55° E 01:41:18 10° NNE
Cosmos 2297 4.1 01:46:52 55° ENE 01:46:52 55° ENE 01:51:39 10° NNE
Cosmos 1825 4.4 01:56:02 24° N 01:56:02 24° N 01:57:38 10° N
Cosmos 2279 Rocket 4.2 01:47:50 10° NNW 01:53:28 61° WNW 01:53:28 61° WNW
CZ-4C R/B 4.3 01:53:11 14° WNW 01:55:18 17° NW 01:59:03 10° N
Meteor 1-10 Rocket 4.3 01:50:39 10° N 01:56:01 77° N 01:56:01 77° N
Cosmos 2082 Rocket 3.1 01:58:07 10° N 02:03:27 43° ENE 02:04:46 37° E
Cosmos 44 4.0 02:10:25 48° NNE 02:10:25 48° NNE 02:13:43 10° NNE
ADEOS Rocket 4.2 02:03:03 10° NNE 02:10:05 42° E 02:12:01 35° SE
Cosmos 2112 Rocket 4.4 02:09:27 10° NNW 02:13:43 58° NW 02:13:43 58° NW
ATLAS 3B R/B 2.8 02:15:40 65° S 02:16:44 75° ESE 02:24:00 10° NE
Cosmos 44 Rocket 3.9 02:19:53 49° NNW 02:19:53 49° NNW 02:23:51 10° NNE
Helios 1A Rocket 4.2 02:21:02 10° N 02:23:43 38° N 02:23:43 38° N
Meteor 1-27 Rocket 3.7 02:19:27 10° N 02:25:26 90° E 02:25:43 82° S
AQUA 4.3 02:22:03 10° NNE 02:26:22 52° E 02:26:22 52° E
Cosmos 1680 Rocket 4.4 02:22:26 10° NNW 02:26:02 38° WNW 02:26:02 38° WNW
Cosmos 1674 Rocket 4.2 02:24:10 10° N 02:27:55 53° NE 02:27:55 53° NE
Cosmos 1937 Rocket 3.5 02:30:03 78° N 02:30:03 78° N 02:34:54 10° NNE
Milstar 3 4.4 02:33:10 27° SSE 02:34:12 27° SE 02:44:09 10° E
Cosmos 1908 Rocket 4.2 02:35:31 53° ENE 02:35:31 53° ENE 02:39:25 10° NNE
Meteor 2-20 Rocket 4.3 02:35:56 71° S 02:36:41 89° W 02:42:53 10° N
Resurs 1-4 Rocket 3.0 02:35:08 10° NNE 02:40:08 40° E 02:41:09 36° SE
COBE Rocket 4.1 02:36:02 10° NNE 02:40:48 58° E 02:41:00 58° ESE
Geosat 4.0 02:37:12 10° NNE 02:42:14 71° ESE 02:42:20 71° SE
Cosmos 1898 Rocket 4.1 02:43:27 44° WNW 02:43:27 44° WNW 02:48:21 10° N
Cosmos 990 Rocket 3.9 02:45:28 72° WNW 02:45:28 72° WNW 02:50:36 10° NNE
SeaSat 1 2.3 02:45:36 88° SSW 02:45:38 89° WSW 02:50:36 10° NNW
Cosmos 1092 Rocket 4.2 02:46:12 51° WSW 02:46:49 53° W 02:52:57 10° N
Cosmos 1378 Rocket 4.0 02:45:56 10° N 02:50:11 55° E 02:50:20 55° E
Delta 2 Rocket 4.3 02:53:06 48° ESE 02:53:06 48° ESE 02:56:32 10° ESE
IRS-1C 4.0 02:49:07 10° NNE 02:54:29 90° WNW 02:55:09 70° SSW
Cosmos 1340 4.3 02:50:57 10° NNW 02:52:51 27° NNW 02:52:51 27° NNW
CZ-2D R/B 2.5 02:50:36 10° NNE 02:55:55 58° E 02:57:14 45° SSE
SL-08 R/B 3.2 02:57:17 79° WSW 02:57:23 79° WSW 03:02:13 10° NNW
Cosmos 1782 Rocket 3.9 02:57:32 57° ESE 02:57:51 58° E 03:02:16 10° NNE
Cosmos 2026 Rocket 3.8 02:58:14 58° SW 02:59:22 74° W 03:05:26 10° N
ARIANE 5 R/B 2.9 02:55:19 10° NNE 03:00:13 55° E 03:01:18 46° SE
Spot 4 Rocket 4.1 02:57:42 10° NNE 03:02:51 73° ESE 03:03:51 56° SSE
Cosmos 1553 Rocket 4.5 02:58:08 10° N 03:04:27 60° E 03:08:29 23° SSE
UNKNOWN OBJECT B 4.5 03:01:57 10° NE 03:04:59 23° E 03:05:37 22° ESE
CBERS-1 4.3 03:02:40 10° N 03:07:37 50° WNW 03:08:06 48° W
USA 238 DEB 3.8 03:06:09 45° WSW 03:08:23 68° WNW 03:15:22 10° NNE
USA 238 3.8 03:06:15 45° SW 03:08:30 69° WNW 03:15:29 10° NNE
IRS-1D 3.4 03:05:23 10° NNE 03:10:29 80° ESE 03:11:33 56° S
Centaur D AC-25 4.4 02:32:52 10° WSW 03:12:08 59° S 03:18:04 10° ESE
Meteor 1-20 Rocket 4.4 03:14:39 38° S 03:16:55 72° E 03:22:45 10° NNE
Cosmos 1943 Rocket 3.7 03:14:38 18° SSE 03:17:40 29° ESE 03:22:28 10° NE
Cosmos 1437 3.5 03:15:41 10° N 03:18:38 51° ENE 03:18:38 51° ENE
GP-B 4.0 03:15:44 10° NNW 03:19:22 33° WNW 03:19:22 33° WNW
Cosmos 724 4.4 03:17:55 43° SSW 03:20:04 77° ESE 03:26:15 10° NNE
Cosmos 2369 Rocket 2.5 03:18:13 38° S 03:20:12 61° ESE 03:25:45 10° NNE
NPP 4.5 03:16:33 10° N 03:21:23 35° WNW 03:22:20 32° W
Meteor 2-11 Rocket 4.4 03:15:28 10° N 03:21:38 82° E 03:25:15 27° S
Cosmos 1833 Rocket 3.2 03:17:01 10° NW 03:22:09 39° WSW 03:22:09 39° WSW
UNK 3.6 03:21:08 51° S 03:22:19 85° WSW 03:27:01 10° NNW
Cosmos 1655 Rocket 4.2 03:25:44 40° SW 03:27:42 55° W 03:33:50 10° N
Cosmos 1812 2.6 03:24:24 10° N 03:28:16 88° E 03:28:42 69° S
COSMOS 2455 3.7 03:27:29 23° SSE 03:30:41 42° ESE 03:36:18 10° NE
Cosmos 1975 Rocket 2.9 03:27:20 10° N 03:31:40 88° W 03:32:56 46° S
Cosmos 372 Rocket 4.1 03:29:51 38° S 03:31:51 73° ESE 03:37:02 10° NNE
SL-16 R/B 2.5 03:31:45 30° S 03:34:53 66° WSW 03:41:07 10° NNW
ADEOS II 4.2 03:31:42 10° NE 03:35:34 21° E 03:39:25 10° SE
CZ-3B DEB 3.9 03:24:51 10° NW 03:38:11 89° SW 03:48:27 10° SE
Cosmos 1602 4.3 03:43:35 27° SSE 03:45:27 54° E 03:49:18 10° NNE
Meteor 1-25 Rocket 4.4 03:43:47 35° SW 03:45:52 54° W 03:51:23 10° N
USA 267 3.3 03:40:11 10° NE 03:46:44 78° NW 03:50:31 27° SW
Cosmos 2082 Rocket 3.5 03:43:01 10° NW 03:46:32 21° W 03:46:32 21° W
ASTRO E2 3.2 03:46:57 40° S 03:47:10 41° SSE 03:50:55 10° E
Cosmos 468 4.5 03:42:27 10° NNW 03:47:48 89° WSW 03:53:04 10° SSE
NOSS 3-2 (C) 3.4 03:45:13 32° SSW 03:48:12 88° ESE 03:54:39 10° NNE
Cosmos 158 Rocket 4.4 03:43:48 10° N 03:48:50 61° ENE 03:53:43 10° SSE
NOSS 3-2 (A) 3.5 03:46:06 32° SW 03:48:57 69° WNW 03:55:24 10° NNE
SL-24 R/B 4.4 03:46:02 10° NNE 03:50:19 70° ESE 03:53:18 23° S
ADEOS Rocket 4.3 03:48:38 10° N 03:55:17 34° WNW 03:58:58 22° WSW
MOZ.5/SAFIR/RUBIN 5/SL-8 3.7 03:56:03 15° S 03:59:58 81° WSW 04:04:44 10° NNW
Cosmos 2266 Rocket 4.1 03:58:28 22° SSW 04:02:43 68° W 04:09:07 10° N
GENESIS II 4.3 04:01:50 35° SW 04:03:23 68° WNW 04:07:24 10° NNE
Cosmos 2315 Rocket 4.5 03:57:37 10° N 04:03:52 63° E 04:10:01 10° SSE
Cosmos 1633 2.9 04:03:18 37° SW 04:04:17 48° W 04:07:49 10° N
CENTAUR R/B 3.6 04:01:24 11° S 04:06:26 36° ESE 04:12:15 10° NE
ADEOS 4.5 04:02:46 10° N 04:07:24 33° WNW 04:09:49 22° WSW
ATLAS 3B R/B 4.3 04:02:55 12° W 04:08:04 24° NW 04:13:41 10° N
Cosmos 1048 Rocket 4.0 04:04:12 10° NNW 04:09:35 81° WSW 04:14:56 10° SSE
GRACE-1 3.9 04:09:58 48° WSW 04:10:18 52° W 04:12:56 10° NNW
GRACE-2 3.9 04:10:22 48° WSW 04:10:43 53° W 04:13:22 10° NNW
Okean 1 3.6 04:06:59 10° NNW 04:10:54 48° W 04:12:59 24° SSW
S3M 4.5 04:05:39 10° NNW 04:11:18 39° W 04:14:58 20° SW
Gbstr 26 Del rocket 2.6 04:10:14 30° WSW 04:11:57 70° NW 04:15:43 10° NE
Resurs 1-4 Rocket 3.6 04:15:41 10° NNW 04:19:39 22° WNW 04:22:14 15° WSW
Okean 1 Rocket 3.7 04:15:45 10° S 04:20:07 57° E 04:24:30 10° NNE
Cosmos 2344 4.0 04:15:51 19° WSW 04:21:25 52° NW 04:29:32 10° NNE
MOS 1 Rocket 4.3 04:18:30 10° N 04:23:23 37° WNW 04:26:38 18° SW
CZ-4B R/B 4.3 04:19:25 10° NNE 04:24:42 43° E 04:30:01 10° S
CZ-4B R/B 3.4 04:22:46 10° NNE 04:26:21 50° E 04:29:50 10° S
BREEZE M DEB (TANK) 3.3 04:21:32 17° SW 04:27:09 69° SE 04:30:01 10° ENE
Meteor 2-4 Rocket 4.1 04:22:09 10° N 04:27:45 67° E 04:33:09 10° SSE
Centaur D-1AR AC-40 3.8 04:15:13 10° WSW 04:28:49 31° SSW 04:33:09 10° SE
Cosmos 1441 Rocket 3.3 04:25:57 10° NNW 04:29:55 61° W 04:33:50 10° S
Meteor 1-13 Rocket 4.2 04:28:43 10° NNW 04:34:13 70° W 04:39:45 10° S
Meteor 1-11 Rocket 3.8 04:29:26 12° SSW 04:34:38 63° W 04:40:25 10° N
CZ-2D R/B 4.0 04:32:16 10° NNW 04:35:28 16° WNW 04:38:34 10° W
ARIANE 5 R/B 4.4 04:36:11 10° NNW 04:38:50 15° WNW 04:41:30 10° W
UNKNOWN OBJECT B 4.5 04:36:51 10° NNW 04:39:18 17° WNW 04:41:05 13° WSW
Cosmos 1300 Rocket 3.8 04:36:08 12° SSW 04:40:04 54° W 04:44:27 10° N
Meteor 1-5 Rocket 4.5 04:35:09 10° S 04:41:05 81° E 04:47:05 10° N
PSLV R/B 4.2 04:45:52 10° W 04:49:00 40° NNW 04:52:10 10° NE
Molniya-1 3.1 04:52:25 11° SSW 04:53:59 41° ESE 04:55:30 10° NE
Okean O Rocket 1.6 04:50:46 10° N 04:55:09 73° WNW 04:59:32 10° SSW
USA 161 3.1 05:00:09 11° WSW 05:01:06 12° W 05:02:13 10° WNW
Cosmos 1943 Rocket 3.1 04:56:15 10° SW 05:01:16 32° WNW 05:06:18 10° N
Meteor PRIRODA 4.5 04:57:52 10° NNE 05:01:31 53° E 05:05:11 10° S
Cosmos 2369 Rocket 4.0 05:01:07 10° W 05:04:39 17° NW 05:08:13 10° NNW
Cosmos 1745 Rocket 4.1 05:00:14 10° S 05:06:36 89° WNW 05:12:57 10° N
